Satellite-Ground Cal/Val Region Overpasses Predictions

Prediction of Satellite NPP Overpassing Cal/Val Region: PacNW

Region Location: (Latitude: 10.00, Longitude: 139.50) to (Latitude: 22.70, Longitude: 165.60).

Table of predicted overpasses for the next 14.0 days since TLE Epoch: 12/1/2018
Interval Starting Time Starting Location Ending Time Ending Location
1 12/02/2018 03:36:51 ( 10.03, 145.52) 12/02/2018 03:40:26 ( 22.66, 142.52)
2 12/02/2018 14:30:14 ( 12.11, 165.60) 12/02/2018 14:30:49 ( 10.06, 165.13)
3 12/02/2018 16:08:44 ( 22.67, 142.75) 12/02/2018 16:12:19 ( 10.05, 139.75)
4 12/03/2018 03:17:49 ( 10.00, 150.29) 12/03/2018 03:21:25 ( 22.68, 147.27)
5 12/03/2018 15:49:42 ( 22.65, 147.50) 12/03/2018 15:53:17 ( 10.03, 144.50)
6 12/04/2018 02:58:47 ( 10.03, 155.04) 12/04/2018 03:02:22 ( 22.65, 152.04)
7 12/04/2018 15:30:40 ( 22.68, 152.26) 12/04/2018 15:34:15 ( 10.06, 149.26)
8 12/05/2018 02:39:46 ( 10.06, 159.79) 12/05/2018 02:43:21 ( 22.68, 156.79)
9 12/05/2018 15:11:38 ( 22.65, 157.01) 12/05/2018 15:15:13 ( 10.03, 154.01)
10 12/06/2018 02:20:43 ( 10.02, 164.55) 12/06/2018 02:24:18 ( 22.65, 161.55)
11 12/06/2018 14:52:36 ( 22.68, 161.78) 12/06/2018 14:56:12 ( 10.00, 158.77)
12 12/07/2018 03:43:11 ( 10.00, 143.94) 12/07/2018 03:46:47 ( 22.68, 140.92)
13 12/07/2018 14:34:39 ( 18.84, 165.59) 12/07/2018 14:37:09 ( 10.03, 163.53)
14 12/07/2018 16:15:04 ( 22.65, 141.15) 12/07/2018 16:17:00 ( 15.84, 139.50)
15 12/08/2018 03:24:09 ( 10.03, 148.69) 12/08/2018 03:27:44 ( 22.65, 145.69)
16 12/08/2018 15:56:02 ( 22.68, 145.92) 12/08/2018 15:59:37 ( 10.06, 142.92)
17 12/09/2018 03:05:07 ( 10.00, 153.45) 12/09/2018 03:08:43 ( 22.68, 150.44)
18 12/09/2018 15:37:01 ( 22.65, 150.66) 12/09/2018 15:40:36 ( 10.03, 147.67)
19 12/10/2018 02:46:05 ( 10.03, 158.20) 12/10/2018 02:49:40 ( 22.65, 155.20)
20 12/10/2018 15:17:58 ( 22.68, 155.43) 12/10/2018 15:21:33 ( 10.06, 152.43)
21 12/11/2018 02:27:03 ( 10.00, 162.96) 12/11/2018 02:30:39 ( 22.68, 159.95)
22 12/11/2018 14:58:57 ( 22.65, 160.18) 12/11/2018 15:02:32 ( 10.03, 157.18)
23 12/12/2018 02:10:35 ( 19.08, 165.59) 12/12/2018 02:11:36 ( 22.66, 164.71)
24 12/12/2018 03:49:31 ( 10.04, 142.34) 12/12/2018 03:52:54 ( 21.96, 139.51)
25 12/12/2018 14:39:54 ( 22.68, 164.94) 12/12/2018 14:43:29 ( 10.06, 161.94)
26 12/12/2018 16:21:24 ( 22.67, 139.57) 12/12/2018 16:21:28 ( 22.44, 139.51)
27 12/13/2018 03:30:29 ( 10.01, 147.10) 12/13/2018 03:34:05 ( 22.69, 144.09)
28 12/13/2018 16:02:22 ( 22.70, 144.33) 12/13/2018 16:05:58 ( 10.02, 141.32)
29 12/14/2018 03:11:27 ( 10.04, 151.85) 12/14/2018 03:15:02 ( 22.67, 148.85)
30 12/14/2018 15:43:20 ( 22.67, 149.08) 12/14/2018 15:46:55 ( 10.05, 146.08)
31 12/15/2018 02:52:25 ( 10.02, 156.61) 12/15/2018 02:56:01 ( 22.70, 153.60)


NCC Satellite Cal/Val Overpasses Prediction Service
